STARLINK-1523, 46028

Orbit data source: Space-Track

STARLINK-1523, 46028 is a payload satellite owned by SpaceX/Seattle (US) in LEO that was launched on Fri, 07 Aug 2020 UTC via an FALCON 9 launch vehicle from the Air Force Eastern Test Range (AFETR). Payload-class satellites include a variety of spacecraft equipped with specific instruments for various scientific and technological missions. These include communications satellites like Starlink; space stations such as the ISS; scientific satellites like the Hubble; Earth observation satellites from companies like Planet Labs, Umbra, and HawkEye 360; GPS; miniature CubeSats for education and research; and military/defense satellites.

Loading next visibility...
Identifier
46028, 2020-055B
Orbit
LEO
Country
Flag of USUS
Related business
Manufacturer
SpaceX/Seattle
Mission
Operational Commercial Communications
Bus & Motor
STARLINK, Unknown motor
Mass
260 kg wet, ~248 kg dry
Launch date (UTC)
2020-08-07 (5 years ago)
Launch vehicle
FALCON 9
Launch site
Air Force Eastern Test Range (AFETR)
Object type
Payload
Rocket body
Debris
Shape & HBR
Box + 1 Pan, 10.1 m
Radar Cross Section
13.562 m², Large (>1 m²)

Expand to show TLE details & history
Last TLE update: 16 hours ago

TLE from 16 hours ago
0 STARLINK-1523
1 46028U 20055B   25291.06463623  .00000860  00000-0  76660-4 0  9994
2 46028  53.0579  46.8890 0001619  85.3343 274.7831 15.06397640287403
Epoch: 2025-10-18T01:33Z
TLE epoch observation values (Epoch: 2025-10-18T01:33:04.570Z)
Latitude
-0°
Longitude
-3.18106°
Altitude
548.005 km
Speed
7.589 km/s
True Right ascension
03h 07m 33s
True Declination
0° 00' 00"
Sunlit
Object was in full shadow at epoch
Visualization orbit readout
Latitude
Unknown
Longitude
Unknown
Altitude
Unknown
Speed
Unknown
Apparent Right ascension
Unknown
Apparent Declination
Unknown
Sunlit
N/A
Visualization observer readout
Local Sidereal Time
12:51:12
Azimuth
Unknown
Elevation
Unknown
Doppler factor
Unknown
Orbital elements
Apogee altitude
548.61 km
Perigee altitude
546.368 km
Semi-major axis
6,925.626 km
Eccentricity
0.00016
Inclination
53.0579°
RAAN
46.889°
Arg. of periapsis
85.3343°
True anomaly
274.76461°
Mean anomaly
274.7831°
Eccentric anomaly
274.77386°
Mean motion
3.76578 °/min
Orbital period
95.6 mins
BSTAR
0.00007666
Loading maneuver chart data...
Computing Atmospheric mass density...
Loading historical data...
Loading historical data...
Loading historical data...
Loading historical data...
Loading historical data...
Loading historical data...
Loading historical data...

Documentation

Showing up to 5 results
|